Monticello, AR

7:15 PM CDT on August 16, 2017 (GMT -0500)
Monticello Municipal-Ellis

Weather History for KLLQ - September, 2013

Change the Weather History Date:

Wednesday, September 4, 2013

  Actual Average Record
Temperature  
Mean Temperature 80 °F -  
Max Temperature 95 °F 87 °F 100 °F (2000)
Min Temperature 66 °F 65 °F 49 °F (1974)
Cooling Degree Days 16    
Growing Degree Days 30 (Base 50)    
Moisture  
Dew Point 61 °F    
Average Humidity 55    
Maximum Humidity 81    
Minimum Humidity 29    
Precipitation  
Precipitation 0.00 in - - ()
Sea Level Pressure  
Sea Level Pressure 30.05 in    
Wind  
Wind Speed 3 mph (NE)    
Max Wind Speed 8 mph    
Max Gust Speed 16 mph    
Visibility 10 miles    
Events      
Averages and records for this station are not official NWS values.
T = Trace of Precipitation, MM = Missing Value Source: NWS Daily Summary

Daily Weather History Graph

Daily Weather History Graph

Search for Another Location

Airport or City:

Trip Planner

Search our weather history database for the weather conditions in past years. The results will help you decide how hot, cold, wet, or windy it might be!

Date:

Astronomy

Sep. 04, 2013 Rise Set
Actual Time 6:43 AM CDT 7:28 PM CDT
Civil Twilight 6:17 AM CDT 7:53 PM CDT
Nautical Twilight 5:48 AM CDT 8:23 PM CDT
Astronomical Twilight 5:17 AM CDT 8:53 PM CDT
Moon 5:55 AM CDT (9/4) 6:49 PM CDT (9/4)
Length of Visible Light 13h 35m
Length of Day
12h 44m
Waning Crescent, 1% of the Moon is Illuminated
Sep 4
Waning Crescent
Sep 5
New
Sep 12
First Quarter
Sep 19
Full
Sep 26
Last Quarter

Hourly Weather History & Observations

Time (CDT) Temp. Heat Index Dew Point Humidity Pressure Visibility Wind Dir Wind Speed Gust Speed Precip Events Conditions
12:53 AM 73.9 °F - 62.1 °F 66% 30.01 in 10.0 mi Calm Calm - N/A   Clear
1:53 AM 73.0 °F - 61.0 °F 66% 30.00 in 10.0 mi NNE 3.5 mph - N/A   Clear
2:53 AM 72.0 °F - 60.1 °F 66% 30.00 in 10.0 mi Calm Calm - N/A   Clear
3:53 AM 71.1 °F - 60.1 °F 68% 30.00 in 10.0 mi Calm Calm - N/A   Clear
4:53 AM 69.1 °F - 60.1 °F 73% 30.01 in 10.0 mi Calm Calm - N/A   Clear
5:53 AM 68.0 °F - 60.1 °F 76% 30.03 in 10.0 mi Calm Calm - N/A   Clear
6:53 AM 66.0 °F - 60.1 °F 81% 30.05 in 10.0 mi Calm Calm - N/A   Scattered Clouds
7:53 AM 72.0 °F - 61.0 °F 68% 30.07 in 10.0 mi NE 4.6 mph - N/A   Partly Cloudy
8:53 AM 77.0 °F - 62.1 °F 60% 30.09 in 10.0 mi NE 6.9 mph - N/A   Partly Cloudy
9:53 AM 81.0 °F 82.2 °F 63.0 °F 54% 30.10 in 10.0 mi East 6.9 mph - N/A   Clear
10:53 AM 84.9 °F 85.4 °F 62.1 °F 46% 30.10 in 10.0 mi ENE 6.9 mph - N/A   Clear
11:53 AM 88.0 °F 88.4 °F 62.1 °F 42% 30.09 in 10.0 mi Calm Calm - N/A   Clear
12:53 PM 89.1 °F 89.0 °F 61.0 °F 39% 30.07 in 10.0 mi SE 6.9 mph - N/A   Clear
1:53 PM 93.0 °F 93.0 °F 61.0 °F 34% 30.06 in 10.0 mi Variable 6.9 mph - N/A   Clear
2:53 PM 95.0 °F 95.2 °F 61.0 °F 32% 30.04 in 10.0 mi Variable 4.6 mph - N/A   Clear
3:53 PM 93.0 °F 92.7 °F 60.1 °F 33% 30.02 in 10.0 mi Variable 6.9 mph 16.1 mph N/A   Clear
4:53 PM 93.9 °F 92.6 °F 57.0 °F 29% 30.01 in 10.0 mi NE 8.1 mph - N/A   Clear
5:53 PM 91.0 °F 89.7 °F 57.0 °F 32% 30.01 in 10.0 mi NNE 6.9 mph - N/A   Clear
6:53 PM 87.1 °F 86.7 °F 60.1 °F 40% 30.03 in 10.0 mi NE 8.1 mph - N/A   Clear
7:53 PM 82.0 °F 82.1 °F 59.0 °F 45% 30.04 in 10.0 mi Calm Calm - 0.00 in   Clear
8:53 PM 78.1 °F - 61.0 °F 56% 30.06 in 10.0 mi NE 3.5 mph - N/A   Clear
9:53 PM 75.0 °F - 62.1 °F 64% 30.07 in 10.0 mi Calm Calm - N/A   Clear
10:53 PM 73.9 °F - 63.0 °F 68% 30.08 in 10.0 mi Calm Calm - N/A   Clear
11:53 PM 71.1 °F - 63.0 °F 75% 30.08 in 10.0 mi NE 4.6 mph - N/A   Clear